GFSMW_prec_pwat_132.txt.gz
Precipitable_Water
0.50 0.51 0.53 0.54 0.54 0.55 0.54 0.55 0.55 0.57 0.57 0.55 0.55 0.56 0.58 0.65 0.68 0.72 0.76 0.86 0.89 0.89 0.92 0.92 0.93 0.95 0.95 0.94 0.90 0.79 0.68 0.66 0.74 0.71 0.71 0.74 0.84 0.90 1.15 1.25 1.37 1.52 1.58
0.50 0.50 0.52 0.54 0.53 0.52 0.54 0.54 0.55 0.57 0.58 0.57 0.59 0.60 0.59 0.62 0.63 0.67 0.68 0.72 0.75 0.80 0.79 0.77 0.81 0.81 0.81 0.81 0.79 0.72 0.64 0.63 0.69 0.62 0.64 0.52 0.57 0.76 0.93 1.03 1.15 1.21 1.28
0.47 0.48 0.50 0.50 0.51 0.51 0.53 0.53 0.55 0.56 0.58 0.59 0.61 0.59 0.60 0.62 0.60 0.61 0.63 0.67 0.70 0.70 0.71 0.72 0.72 0.74 0.75 0.71 0.72 0.67 0.61 0.53 0.60 0.67 0.66 0.56 0.50 0.54 0.64 0.85 1.11 1.26 1.29
0.46 0.48 0.48 0.48 0.50 0.52 0.54 0.54 0.53 0.52 0.53 0.57 0.55 0.54 0.53 0.53 0.57 0.60 0.63 0.65 0.67 0.67 0.67 0.66 0.70 0.71 0.72 0.70 0.68 0.67 0.62 0.60 0.57 0.63 0.70 0.73 0.70 0.56 0.45 0.57 0.67 0.92 1.07
0.47 0.46 0.47 0.49 0.51 0.52 0.51 0.51 0.50 0.48 0.49 0.50 0.50 0.51 0.52 0.55 0.58 0.61 0.64 0.66 0.67 0.69 0.70 0.73 0.71 0.68 0.69 0.69 0.67 0.65 0.62 0.63 0.61 0.61 0.63 0.65 0.64 0.65 0.61 0.47 0.52 0.65 0.86
0.46 0.47 0.49 0.51 0.49 0.50 0.47 0.44 0.42 0.41 0.42 0.42 0.42 0.41 0.43 0.47 0.49 0.49 0.51 0.57 0.64 0.70 0.72 0.74 0.75 0.78 0.76 0.74 0.74 0.71 0.66 0.65 0.66 0.67 0.68 0.63 0.58 0.57 0.57 0.53 0.51 0.52 0.59
0.46 0.46 0.47 0.47 0.46 0.43 0.40 0.40 0.41 0.39 0.41 0.40 0.40 0.39 0.39 0.40 0.41 0.44 0.48 0.50 0.53 0.56 0.60 0.66 0.67 0.72 0.77 0.78 0.78 0.75 0.74 0.72 0.68 0.71 0.69 0.65 0.62 0.66 0.64 0.60 0.54 0.48 0.54
0.45 0.46 0.47 0.47 0.42 0.42 0.40 0.40 0.40 0.39 0.40 0.41 0.40 0.41 0.41 0.41 0.41 0.41 0.43 0.45 0.48 0.53 0.61 0.62 0.63 0.63 0.67 0.71 0.76 0.77 0.75 0.75 0.71 0.71 0.65 0.59 0.60 0.61 0.63 0.61 0.56 0.45 0.45
0.46 0.46 0.48 0.47 0.43 0.41 0.41 0.41 0.41 0.41 0.41 0.41 0.42 0.42 0.43 0.42 0.42 0.43 0.43 0.44 0.48 0.50 0.52 0.64 0.67 0.66 0.67 0.70 0.74 0.74 0.72 0.75 0.72 0.64 0.60 0.56 0.55 0.56 0.59 0.62 0.63 0.55 0.42
0.45 0.46 0.48 0.47 0.45 0.43 0.44 0.45 0.45 0.44 0.44 0.44 0.44 0.44 0.44 0.45 0.45 0.46 0.45 0.45 0.47 0.50 0.55 0.56 0.64 0.65 0.68 0.72 0.71 0.68 0.65 0.64 0.63 0.60 0.55 0.53 0.52 0.53 0.56 0.58 0.63 0.62 0.54
0.46 0.47 0.49 0.49 0.49 0.46 0.46 0.46 0.47 0.46 0.46 0.46 0.46 0.45 0.45 0.45 0.46 0.47 0.48 0.49 0.50 0.51 0.55 0.60 0.63 0.64 0.66 0.69 0.69 0.65 0.62 0.61 0.59 0.58 0.55 0.52 0.54 0.54 0.56 0.59 0.63 0.62 0.59
0.49 0.49 0.49 0.48 0.48 0.47 0.47 0.48 0.49 0.48 0.47 0.47 0.46 0.45 0.45 0.44 0.44 0.44 0.45 0.47 0.49 0.52 0.54 0.56 0.60 0.59 0.62 0.64 0.65 0.63 0.63 0.61 0.59 0.58 0.54 0.53 0.56 0.56 0.57 0.59 0.61 0.64 0.64
0.50 0.47 0.46 0.44 0.46 0.49 0.49 0.50 0.51 0.50 0.49 0.47 0.45 0.43 0.42 0.41 0.41 0.42 0.43 0.43 0.44 0.47 0.51 0.51 0.49 0.50 0.52 0.55 0.57 0.57 0.59 0.60 0.58 0.55 0.53 0.53 0.53 0.53 0.55 0.57 0.59 0.64 0.66
0.56 0.51 0.46 0.44 0.46 0.51 0.51 0.52 0.52 0.52 0.50 0.47 0.45 0.43 0.42 0.41 0.41 0.41 0.40 0.38 0.37 0.37 0.41 0.39 0.36 0.34 0.34 0.36 0.37 0.38 0.40 0.41 0.44 0.46 0.47 0.49 0.50 0.52 0.53 0.53 0.54 0.58 0.62
0.57 0.52 0.45 0.44 0.48 0.51 0.52 0.53 0.53 0.52 0.49 0.45 0.43 0.41 0.41 0.40 0.39 0.37 0.35 0.34 0.32 0.30 0.31 0.29 0.25 0.24 0.24 0.29 0.31 0.31 0.28 0.26 0.24 0.26 0.29 0.29 0.33 0.39 0.46 0.49 0.50 0.52 0.52
0.56 0.51 0.46 0.44 0.47 0.51 0.51 0.52 0.51 0.48 0.46 0.42 0.40 0.40 0.38 0.37 0.35 0.33 0.32 0.30 0.30 0.27 0.25 0.26 0.22 0.19 0.20 0.24 0.27 0.27 0.26 0.23 0.20 0.17 0.19 0.18 0.18 0.21 0.28 0.32 0.36 0.43 0.46
0.56 0.46 0.44 0.44 0.47 0.51 0.52 0.52 0.49 0.46 0.42 0.39 0.38 0.37 0.34 0.31 0.28 0.30 0.28 0.26 0.25 0.23 0.21 0.22 0.22 0.18 0.19 0.21 0.24 0.25 0.24 0.22 0.20 0.16 0.15 0.15 0.15 0.15 0.16 0.19 0.22 0.28 0.31
0.48 0.46 0.44 0.45 0.49 0.53 0.53 0.52 0.47 0.43 0.39 0.38 0.36 0.33 0.30 0.30 0.28 0.26 0.26 0.25 0.23 0.21 0.20 0.19 0.19 0.18 0.18 0.17 0.20 0.22 0.21 0.21 0.19 0.17 0.14 0.14 0.14 0.15 0.13 0.12 0.13 0.15 0.19
0.50 0.45 0.45 0.48 0.51 0.52 0.51 0.47 0.43 0.41 0.38 0.35 0.32 0.26 0.24 0.23 0.24 0.23 0.23 0.23 0.21 0.22 0.21 0.21 0.20 0.17 0.17 0.17 0.16 0.18 0.19 0.17 0.17 0.16 0.15 0.14 0.14 0.14 0.13 0.11 0.10 0.10 0.13
0.50 0.48 0.49 0.51 0.52 0.53 0.52 0.46 0.41 0.38 0.36 0.34 0.28 0.25 0.22 0.21 0.21 0.23 0.23 0.24 0.24 0.22 0.22 0.20 0.19 0.18 0.15 0.17 0.16 0.15 0.16 0.15 0.14 0.14 0.14 0.14 0.14 0.14 0.14 0.12 0.11 0.09 0.11
0.48 0.50 0.51 0.50 0.52 0.52 0.49 0.44 0.41 0.35 0.34 0.32 0.27 0.23 0.23 0.25 0.25 0.23 0.22 0.21 0.22 0.22 0.22 0.22 0.19 0.17 0.16 0.15 0.16 0.15 0.14 0.15 0.14 0.13 0.13 0.14 0.14 0.14 0.14 0.13 0.12 0.11 0.12
0.47 0.49 0.50 0.50 0.52 0.50 0.47 0.42 0.35 0.35 0.32 0.25 0.23 0.22 0.25 0.22 0.22 0.22 0.22 0.22 0.22 0.20 0.20 0.20 0.18 0.16 0.15 0.15 0.15 0.15 0.14 0.15 0.14 0.14 0.14 0.14 0.14 0.13 0.13 0.13 0.12 0.11 0.11
0.45 0.49 0.50 0.49 0.48 0.47 0.43 0.36 0.34 0.34 0.29 0.24 0.22 0.22 0.21 0.21 0.22 0.21 0.21 0.21 0.20 0.20 0.19 0.16 0.16 0.14 0.14 0.14 0.14 0.14 0.15 0.14 0.15 0.15 0.14 0.14 0.14 0.13 0.12 0.12 0.12 0.11 0.10
0.43 0.46 0.46 0.44 0.43 0.41 0.37 0.35 0.34 0.31 0.26 0.23 0.21 0.21 0.20 0.20 0.21 0.20 0.18 0.17 0.17 0.16 0.17 0.16 0.14 0.14 0.13 0.14 0.14 0.14 0.14 0.14 0.15 0.15 0.14 0.13 0.13 0.13 0.13 0.12 0.12 0.12 0.11
0.41 0.43 0.42 0.39 0.38 0.37 0.37 0.36 0.34 0.30 0.25 0.23 0.19 0.19 0.19 0.17 0.17 0.18 0.17 0.14 0.15 0.14 0.13 0.15 0.15 0.13 0.12 0.14 0.15 0.15 0.14 0.14 0.14 0.14 0.13 0.12 0.12 0.11 0.11 0.11 0.11 0.12 0.11
0.42 0.42 0.41 0.40 0.38 0.37 0.36 0.34 0.31 0.25 0.23 0.20 0.19 0.18 0.18 0.20 0.18 0.18 0.18 0.19 0.18 0.17 0.16 0.15 0.14 0.15 0.15 0.16 0.15 0.15 0.16 0.14 0.14 0.13 0.11 0.11 0.10 0.10 0.10 0.10 0.10 0.10 0.10

GFSMW_prec_pwat_135.txt.gz
Precipitable_Water
0.56 0.57 0.52 0.51 0.52 0.54 0.53 0.52 0.52 0.53 0.54 0.53 0.52 0.53 0.53 0.56 0.57 0.60 0.62 0.62 0.66 0.68 0.69 0.72 0.78 0.79 0.81 0.89 0.85 0.84 0.81 0.79 0.76 0.66 0.57 0.55 0.58 0.70 0.79 0.93 0.95 0.99 1.16
0.53 0.53 0.50 0.51 0.51 0.50 0.52 0.52 0.53 0.54 0.54 0.54 0.55 0.56 0.57 0.57 0.59 0.59 0.61 0.60 0.61 0.62 0.62 0.63 0.64 0.66 0.69 0.71 0.71 0.75 0.73 0.73 0.73 0.61 0.57 0.46 0.50 0.69 0.78 0.82 0.89 0.95 1.01
0.51 0.51 0.49 0.50 0.51 0.50 0.52 0.53 0.52 0.51 0.51 0.52 0.53 0.54 0.56 0.55 0.53 0.54 0.56 0.59 0.62 0.62 0.61 0.60 0.60 0.61 0.61 0.61 0.64 0.68 0.67 0.64 0.68 0.68 0.60 0.48 0.45 0.52 0.58 0.61 0.68 0.73 0.84
0.54 0.53 0.48 0.49 0.50 0.52 0.53 0.51 0.48 0.45 0.45 0.46 0.43 0.43 0.42 0.41 0.47 0.50 0.54 0.56 0.60 0.62 0.66 0.64 0.65 0.67 0.66 0.62 0.61 0.63 0.64 0.65 0.60 0.64 0.69 0.68 0.64 0.52 0.44 0.60 0.61 0.66 0.66
0.54 0.48 0.49 0.49 0.52 0.53 0.51 0.50 0.45 0.42 0.40 0.38 0.37 0.35 0.34 0.36 0.39 0.41 0.42 0.46 0.50 0.53 0.55 0.59 0.65 0.67 0.68 0.69 0.68 0.65 0.64 0.66 0.63 0.60 0.61 0.62 0.62 0.63 0.56 0.43 0.52 0.58 0.59
0.51 0.52 0.51 0.51 0.51 0.51 0.47 0.44 0.42 0.41 0.40 0.39 0.37 0.35 0.34 0.34 0.34 0.35 0.36 0.39 0.42 0.46 0.49 0.53 0.55 0.56 0.60 0.66 0.71 0.73 0.73 0.72 0.69 0.68 0.65 0.61 0.58 0.60 0.61 0.55 0.52 0.50 0.50
0.55 0.51 0.48 0.47 0.48 0.47 0.42 0.43 0.42 0.39 0.40 0.39 0.37 0.37 0.37 0.37 0.36 0.37 0.37 0.36 0.37 0.39 0.42 0.46 0.49 0.54 0.57 0.57 0.63 0.67 0.66 0.70 0.74 0.74 0.71 0.71 0.68 0.67 0.69 0.64 0.54 0.47 0.51
0.54 0.49 0.50 0.50 0.48 0.45 0.41 0.42 0.41 0.40 0.41 0.41 0.40 0.40 0.40 0.41 0.41 0.41 0.41 0.41 0.40 0.40 0.42 0.44 0.47 0.48 0.56 0.60 0.62 0.63 0.67 0.69 0.73 0.71 0.72 0.70 0.70 0.69 0.67 0.62 0.53 0.41 0.43
0.51 0.51 0.52 0.51 0.48 0.45 0.41 0.42 0.42 0.43 0.43 0.43 0.43 0.42 0.42 0.42 0.42 0.43 0.45 0.44 0.45 0.44 0.44 0.45 0.45 0.49 0.53 0.59 0.64 0.65 0.68 0.68 0.68 0.68 0.69 0.70 0.70 0.70 0.69 0.62 0.55 0.45 0.34
0.53 0.53 0.53 0.52 0.50 0.48 0.45 0.45 0.45 0.45 0.46 0.46 0.46 0.44 0.44 0.44 0.44 0.45 0.45 0.46 0.46 0.47 0.47 0.47 0.47 0.51 0.56 0.59 0.61 0.66 0.69 0.68 0.67 0.65 0.63 0.64 0.66 0.65 0.62 0.56 0.53 0.51 0.45
0.55 0.55 0.55 0.53 0.52 0.51 0.47 0.47 0.46 0.46 0.48 0.49 0.48 0.45 0.44 0.45 0.44 0.43 0.44 0.46 0.46 0.47 0.47 0.48 0.47 0.50 0.54 0.59 0.63 0.65 0.66 0.66 0.67 0.64 0.62 0.61 0.62 0.58 0.56 0.54 0.53 0.52 0.50
0.57 0.56 0.52 0.50 0.49 0.49 0.49 0.47 0.48 0.48 0.50 0.51 0.49 0.46 0.44 0.44 0.42 0.42 0.41 0.42 0.42 0.45 0.44 0.45 0.43 0.47 0.52 0.55 0.60 0.61 0.62 0.61 0.61 0.59 0.57 0.58 0.58 0.56 0.55 0.53 0.52 0.53 0.54
0.59 0.58 0.55 0.51 0.49 0.48 0.48 0.48 0.50 0.50 0.52 0.52 0.48 0.45 0.43 0.42 0.41 0.41 0.41 0.40 0.39 0.39 0.40 0.41 0.36 0.38 0.41 0.41 0.43 0.43 0.45 0.45 0.50 0.52 0.49 0.53 0.53 0.53 0.53 0.52 0.50 0.51 0.52
0.65 0.64 0.58 0.54 0.52 0.47 0.48 0.49 0.51 0.52 0.52 0.51 0.48 0.45 0.43 0.42 0.41 0.40 0.37 0.35 0.33 0.32 0.29 0.30 0.26 0.24 0.27 0.31 0.33 0.31 0.30 0.25 0.28 0.30 0.30 0.32 0.36 0.37 0.42 0.46 0.46 0.49 0.49
0.62 0.63 0.59 0.56 0.53 0.48 0.49 0.52 0.52 0.52 0.52 0.49 0.45 0.43 0.43 0.42 0.39 0.37 0.34 0.31 0.29 0.31 0.29 0.24 0.21 0.21 0.23 0.25 0.26 0.27 0.26 0.21 0.19 0.21 0.21 0.22 0.23 0.26 0.28 0.29 0.28 0.31 0.36
0.61 0.62 0.59 0.57 0.54 0.48 0.49 0.50 0.51 0.50 0.50 0.46 0.44 0.43 0.40 0.36 0.35 0.32 0.30 0.27 0.26 0.27 0.27 0.21 0.18 0.18 0.21 0.24 0.24 0.23 0.21 0.20 0.18 0.17 0.19 0.19 0.19 0.18 0.19 0.22 0.24 0.25 0.25
0.58 0.59 0.57 0.57 0.54 0.48 0.50 0.48 0.48 0.48 0.46 0.45 0.44 0.38 0.35 0.32 0.29 0.27 0.27 0.25 0.23 0.21 0.20 0.19 0.18 0.17 0.18 0.23 0.22 0.22 0.20 0.18 0.18 0.18 0.17 0.17 0.18 0.16 0.15 0.16 0.17 0.18 0.21
0.57 0.59 0.58 0.56 0.52 0.49 0.49 0.47 0.46 0.45 0.45 0.41 0.39 0.36 0.33 0.28 0.28 0.27 0.26 0.24 0.23 0.21 0.19 0.16 0.16 0.17 0.17 0.19 0.20 0.20 0.19 0.16 0.15 0.16 0.16 0.15 0.16 0.16 0.14 0.12 0.12 0.13 0.14
0.60 0.61 0.59 0.54 0.51 0.48 0.48 0.46 0.45 0.45 0.41 0.39 0.36 0.33 0.28 0.22 0.23 0.22 0.22 0.25 0.22 0.20 0.19 0.18 0.17 0.17 0.17 0.17 0.17 0.17 0.17 0.15 0.15 0.16 0.17 0.16 0.15 0.16 0.13 0.11 0.10 0.10 0.11
0.59 0.57 0.56 0.54 0.50 0.49 0.49 0.46 0.47 0.43 0.41 0.38 0.32 0.30 0.25 0.21 0.20 0.21 0.24 0.24 0.26 0.23 0.21 0.18 0.16 0.15 0.16 0.18 0.17 0.15 0.15 0.14 0.14 0.14 0.15 0.16 0.15 0.15 0.14 0.11 0.10 0.09 0.10
0.54 0.53 0.51 0.49 0.49 0.51 0.50 0.47 0.45 0.41 0.40 0.37 0.32 0.28 0.22 0.22 0.24 0.23 0.23 0.22 0.23 0.22 0.20 0.18 0.16 0.15 0.16 0.16 0.17 0.16 0.15 0.14 0.14 0.13 0.13 0.15 0.14 0.15 0.14 0.12 0.11 0.10 0.11
0.49 0.49 0.48 0.48 0.52 0.52 0.50 0.45 0.42 0.43 0.39 0.34 0.29 0.25 0.24 0.25 0.23 0.22 0.23 0.23 0.22 0.21 0.19 0.17 0.14 0.13 0.14 0.15 0.15 0.16 0.15 0.16 0.14 0.13 0.14 0.14 0.14 0.13 0.13 0.12 0.11 0.10 0.10
0.47 0.49 0.48 0.48 0.51 0.51 0.49 0.43 0.43 0.40 0.33 0.28 0.25 0.24 0.24 0.24 0.23 0.22 0.22 0.21 0.21 0.19 0.17 0.15 0.13 0.13 0.14 0.15 0.15 0.15 0.15 0.16 0.15 0.14 0.14 0.14 0.13 0.12 0.11 0.12 0.11 0.10 0.10
0.46 0.47 0.46 0.45 0.46 0.48 0.46 0.44 0.41 0.35 0.29 0.26 0.24 0.24 0.23 0.20 0.20 0.20 0.20 0.19 0.18 0.17 0.15 0.14 0.12 0.13 0.14 0.14 0.15 0.15 0.15 0.15 0.15 0.14 0.13 0.12 0.12 0.11 0.11 0.10 0.11 0.10 0.10
0.44 0.44 0.43 0.42 0.42 0.44 0.43 0.41 0.37 0.32 0.29 0.27 0.25 0.22 0.20 0.19 0.17 0.15 0.15 0.14 0.15 0.16 0.15 0.14 0.13 0.13 0.13 0.14 0.16 0.17 0.15 0.15 0.14 0.13 0.11 0.10 0.10 0.09 0.09 0.09 0.10 0.10 0.10
0.43 0.42 0.41 0.40 0.40 0.40 0.39 0.38 0.36 0.34 0.30 0.23 0.22 0.19 0.18 0.19 0.17 0.18 0.18 0.19 0.19 0.18 0.17 0.16 0.15 0.15 0.16 0.15 0.16 0.17 0.16 0.14 0.13 0.11 0.10 0.09 0.09 0.09 0.09 0.09 0.09 0.09 0.09

GFSMW_prec_pwat_138.txt.gz
Precipitable_Water
0.57 0.59 0.59 0.60 0.54 0.49 0.48 0.48 0.49 0.51 0.52 0.53 0.53 0.55 0.54 0.56 0.56 0.58 0.58 0.57 0.55 0.55 0.55 0.55 0.58 0.60 0.63 0.62 0.65 0.69 0.65 0.65 0.73 0.72 0.70 0.67 0.75 0.73 0.75 0.89 0.97 1.01 1.10
0.55 0.58 0.58 0.59 0.54 0.47 0.47 0.48 0.50 0.50 0.51 0.53 0.54 0.56 0.56 0.55 0.54 0.54 0.54 0.55 0.55 0.55 0.54 0.53 0.53 0.55 0.55 0.55 0.57 0.58 0.57 0.59 0.61 0.58 0.60 0.56 0.62 0.70 0.71 0.77 0.86 0.87 0.95
0.50 0.54 0.57 0.58 0.54 0.46 0.46 0.48 0.47 0.46 0.47 0.48 0.49 0.50 0.50 0.49 0.47 0.46 0.46 0.48 0.50 0.50 0.52 0.54 0.56 0.56 0.58 0.56 0.57 0.57 0.55 0.52 0.58 0.63 0.57 0.51 0.48 0.57 0.68 0.72 0.71 0.75 0.78
0.55 0.57 0.59 0.58 0.52 0.48 0.50 0.47 0.45 0.42 0.40 0.41 0.38 0.37 0.35 0.34 0.36 0.37 0.39 0.40 0.42 0.43 0.44 0.46 0.48 0.51 0.56 0.58 0.60 0.62 0.62 0.59 0.54 0.61 0.67 0.64 0.63 0.50 0.44 0.58 0.63 0.66 0.66
0.54 0.57 0.60 0.56 0.53 0.53 0.49 0.47 0.44 0.41 0.39 0.39 0.38 0.36 0.34 0.36 0.36 0.36 0.35 0.36 0.37 0.38 0.39 0.42 0.44 0.45 0.47 0.49 0.52 0.58 0.62 0.65 0.64 0.61 0.62 0.63 0.60 0.62 0.54 0.45 0.53 0.59 0.59
0.55 0.59 0.60 0.57 0.55 0.55 0.50 0.46 0.42 0.40 0.41 0.40 0.39 0.38 0.36 0.35 0.34 0.35 0.35 0.36 0.37 0.37 0.39 0.40 0.41 0.42 0.44 0.46 0.49 0.50 0.51 0.57 0.62 0.64 0.66 0.64 0.60 0.58 0.55 0.50 0.51 0.54 0.61
0.56 0.59 0.55 0.56 0.54 0.51 0.50 0.45 0.42 0.40 0.42 0.41 0.41 0.41 0.40 0.39 0.38 0.38 0.38 0.37 0.37 0.38 0.39 0.42 0.41 0.42 0.43 0.45 0.47 0.50 0.50 0.50 0.51 0.55 0.59 0.66 0.67 0.70 0.65 0.60 0.56 0.53 0.59
0.59 0.56 0.58 0.56 0.52 0.53 0.50 0.47 0.44 0.42 0.43 0.43 0.43 0.44 0.43 0.42 0.41 0.42 0.41 0.41 0.41 0.41 0.43 0.43 0.44 0.45 0.46 0.47 0.47 0.49 0.53 0.55 0.55 0.56 0.61 0.62 0.66 0.69 0.71 0.67 0.61 0.55 0.56
0.60 0.58 0.58 0.53 0.54 0.54 0.51 0.48 0.46 0.46 0.46 0.46 0.46 0.45 0.45 0.44 0.43 0.44 0.44 0.43 0.44 0.44 0.44 0.43 0.45 0.48 0.49 0.50 0.51 0.52 0.51 0.54 0.56 0.59 0.63 0.64 0.64 0.67 0.69 0.68 0.65 0.58 0.47
0.60 0.59 0.55 0.53 0.56 0.56 0.53 0.51 0.49 0.47 0.48 0.48 0.48 0.48 0.47 0.47 0.46 0.45 0.43 0.42 0.44 0.45 0.42 0.42 0.46 0.49 0.50 0.51 0.53 0.52 0.54 0.55 0.57 0.60 0.62 0.64 0.64 0.63 0.65 0.65 0.63 0.62 0.57
0.61 0.59 0.54 0.56 0.58 0.58 0.54 0.49 0.49 0.49 0.49 0.50 0.49 0.48 0.48 0.47 0.45 0.43 0.43 0.41 0.42 0.41 0.41 0.40 0.44 0.47 0.49 0.51 0.50 0.52 0.53 0.55 0.56 0.59 0.59 0.61 0.64 0.63 0.62 0.62 0.62 0.61 0.55
0.62 0.57 0.56 0.57 0.58 0.56 0.52 0.49 0.49 0.49 0.50 0.50 0.51 0.49 0.49 0.47 0.44 0.42 0.40 0.39 0.38 0.37 0.36 0.35 0.40 0.43 0.44 0.43 0.40 0.38 0.41 0.46 0.51 0.51 0.56 0.58 0.61 0.61 0.62 0.59 0.57 0.54 0.54
0.60 0.59 0.57 0.56 0.56 0.54 0.57 0.52 0.49 0.49 0.51 0.53 0.50 0.48 0.46 0.44 0.42 0.40 0.39 0.37 0.35 0.31 0.28 0.25 0.29 0.33 0.36 0.34 0.31 0.25 0.23 0.28 0.29 0.28 0.32 0.38 0.44 0.48 0.52 0.53 0.51 0.51 0.51
0.61 0.59 0.60 0.62 0.63 0.61 0.60 0.55 0.51 0.52 0.52 0.51 0.50 0.48 0.45 0.43 0.41 0.39 0.36 0.33 0.31 0.27 0.25 0.24 0.25 0.28 0.28 0.26 0.23 0.21 0.21 0.21 0.23 0.24 0.24 0.24 0.25 0.28 0.30 0.34 0.35 0.35 0.38
0.67 0.68 0.67 0.64 0.63 0.61 0.62 0.59 0.54 0.52 0.53 0.52 0.50 0.46 0.44 0.43 0.40 0.37 0.32 0.30 0.29 0.26 0.25 0.25 0.24 0.26 0.26 0.23 0.20 0.17 0.16 0.17 0.19 0.20 0.21 0.22 0.22 0.23 0.24 0.25 0.26 0.25 0.23
0.66 0.70 0.67 0.64 0.62 0.61 0.63 0.59 0.54 0.53 0.53 0.49 0.46 0.44 0.42 0.40 0.36 0.32 0.27 0.26 0.25 0.24 0.22 0.23 0.23 0.23 0.24 0.24 0.20 0.19 0.16 0.16 0.16 0.18 0.19 0.19 0.18 0.18 0.20 0.21 0.21 0.22 0.19
0.66 0.67 0.64 0.63 0.63 0.62 0.65 0.58 0.53 0.52 0.49 0.46 0.44 0.43 0.39 0.35 0.31 0.27 0.24 0.22 0.20 0.20 0.19 0.20 0.21 0.21 0.21 0.21 0.19 0.16 0.16 0.16 0.16 0.16 0.16 0.18 0.18 0.16 0.16 0.16 0.16 0.17 0.17
0.55 0.60 0.63 0.63 0.66 0.66 0.64 0.58 0.51 0.50 0.47 0.46 0.44 0.39 0.35 0.32 0.28 0.26 0.24 0.22 0.21 0.19 0.18 0.18 0.18 0.18 0.19 0.19 0.17 0.15 0.15 0.15 0.16 0.16 0.16 0.16 0.16 0.14 0.13 0.13 0.13 0.12 0.13
0.59 0.62 0.63 0.65 0.66 0.61 0.61 0.56 0.50 0.48 0.47 0.43 0.40 0.36 0.33 0.29 0.24 0.23 0.22 0.21 0.20 0.17 0.16 0.18 0.19 0.18 0.18 0.18 0.17 0.16 0.15 0.14 0.15 0.17 0.18 0.17 0.16 0.15 0.12 0.10 0.10 0.09 0.10
0.57 0.59 0.63 0.64 0.62 0.59 0.58 0.51 0.48 0.47 0.45 0.42 0.40 0.36 0.30 0.25 0.22 0.22 0.23 0.25 0.22 0.20 0.19 0.16 0.16 0.17 0.17 0.18 0.17 0.16 0.15 0.13 0.13 0.14 0.15 0.15 0.15 0.14 0.13 0.10 0.09 0.08 0.09
0.54 0.56 0.57 0.57 0.57 0.55 0.51 0.47 0.47 0.45 0.45 0.42 0.36 0.32 0.28 0.24 0.23 0.24 0.26 0.24 0.20 0.18 0.17 0.15 0.15 0.16 0.17 0.18 0.18 0.17 0.15 0.14 0.13 0.13 0.13 0.13 0.13 0.14 0.12 0.11 0.10 0.09 0.10
0.52 0.54 0.54 0.53 0.53 0.52 0.49 0.47 0.46 0.48 0.43 0.38 0.34 0.30 0.28 0.25 0.24 0.26 0.23 0.22 0.21 0.19 0.17 0.14 0.14 0.15 0.16 0.17 0.17 0.17 0.17 0.15 0.13 0.13 0.13 0.13 0.13 0.12 0.12 0.11 0.11 0.10 0.09
0.51 0.53 0.52 0.50 0.50 0.49 0.48 0.47 0.48 0.46 0.42 0.36 0.31 0.29 0.28 0.26 0.26 0.24 0.22 0.22 0.21 0.19 0.16 0.14 0.13 0.14 0.15 0.16 0.17 0.17 0.17 0.15 0.14 0.14 0.14 0.13 0.12 0.11 0.11 0.11 0.10 0.10 0.09
0.48 0.50 0.48 0.48 0.47 0.49 0.49 0.48 0.47 0.45 0.41 0.33 0.29 0.28 0.25 0.24 0.24 0.23 0.23 0.22 0.20 0.18 0.15 0.14 0.14 0.14 0.15 0.16 0.17 0.16 0.15 0.15 0.13 0.12 0.12 0.12 0.11 0.10 0.10 0.09 0.09 0.09 0.09
0.48 0.48 0.46 0.47 0.47 0.49 0.48 0.47 0.45 0.42 0.35 0.30 0.29 0.27 0.24 0.22 0.21 0.20 0.20 0.19 0.19 0.16 0.14 0.14 0.14 0.14 0.14 0.17 0.19 0.16 0.15 0.13 0.13 0.11 0.10 0.09 0.09 0.08 0.08 0.08 0.09 0.09 0.09
0.45 0.46 0.47 0.47 0.46 0.46 0.44 0.44 0.43 0.38 0.31 0.29 0.29 0.27 0.23 0.18 0.15 0.15 0.16 0.18 0.18 0.18 0.17 0.16 0.16 0.17 0.17 0.18 0.18 0.17 0.15 0.14 0.12 0.10 0.09 0.09 0.09 0.09 0.09 0.09 0.09 0.09 0.09

GFSMW_prec_pwat_141.txt.gz
Precipitable_Water
0.57 0.61 0.62 0.63 0.63 0.60 0.55 0.52 0.46 0.47 0.49 0.50 0.50 0.51 0.49 0.52 0.53 0.54 0.54 0.53 0.53 0.52 0.51 0.51 0.51 0.51 0.49 0.49 0.51 0.52 0.51 0.51 0.54 0.48 0.44 0.49 0.63 0.78 0.83 0.88 0.90 0.94 0.99
0.53 0.57 0.60 0.62 0.63 0.59 0.55 0.52 0.46 0.47 0.49 0.51 0.52 0.52 0.50 0.48 0.47 0.47 0.47 0.46 0.46 0.47 0.47 0.48 0.49 0.50 0.49 0.49 0.49 0.48 0.46 0.48 0.53 0.47 0.48 0.40 0.47 0.65 0.79 0.84 0.86 0.86 0.90
0.48 0.54 0.57 0.60 0.63 0.59 0.56 0.51 0.47 0.46 0.46 0.47 0.48 0.46 0.46 0.44 0.41 0.40 0.39 0.40 0.40 0.40 0.41 0.41 0.42 0.42 0.45 0.46 0.49 0.50 0.49 0.46 0.52 0.55 0.51 0.43 0.39 0.48 0.61 0.74 0.80 0.82 0.87
0.53 0.55 0.56 0.58 0.62 0.60 0.58 0.53 0.48 0.44 0.42 0.41 0.40 0.40 0.37 0.33 0.35 0.36 0.37 0.38 0.39 0.38 0.39 0.39 0.39 0.39 0.40 0.41 0.42 0.45 0.46 0.48 0.47 0.57 0.61 0.61 0.57 0.47 0.43 0.57 0.71 0.76 0.76
0.52 0.53 0.57 0.60 0.63 0.61 0.56 0.54 0.50 0.44 0.41 0.40 0.39 0.37 0.35 0.36 0.37 0.38 0.38 0.39 0.40 0.40 0.40 0.40 0.40 0.40 0.40 0.40 0.41 0.42 0.43 0.43 0.42 0.45 0.53 0.58 0.60 0.60 0.52 0.46 0.54 0.62 0.65
0.53 0.58 0.62 0.64 0.64 0.60 0.58 0.55 0.49 0.44 0.44 0.43 0.42 0.39 0.37 0.37 0.38 0.38 0.37 0.38 0.39 0.41 0.42 0.42 0.43 0.43 0.43 0.42 0.42 0.42 0.43 0.43 0.44 0.45 0.46 0.48 0.50 0.54 0.56 0.52 0.53 0.55 0.59
0.52 0.55 0.58 0.61 0.62 0.57 0.57 0.54 0.49 0.45 0.47 0.46 0.44 0.43 0.42 0.42 0.40 0.40 0.39 0.39 0.39 0.40 0.40 0.43 0.43 0.44 0.45 0.45 0.45 0.45 0.44 0.44 0.43 0.46 0.47 0.50 0.50 0.51 0.52 0.53 0.54 0.55 0.59
0.51 0.56 0.61 0.64 0.59 0.58 0.57 0.54 0.48 0.47 0.48 0.48 0.47 0.48 0.47 0.45 0.45 0.44 0.44 0.43 0.43 0.43 0.42 0.44 0.45 0.46 0.48 0.48 0.48 0.49 0.49 0.48 0.46 0.46 0.48 0.51 0.53 0.55 0.55 0.54 0.53 0.52 0.60
0.55 0.60 0.66 0.66 0.61 0.59 0.57 0.53 0.49 0.49 0.50 0.50 0.50 0.49 0.48 0.47 0.46 0.47 0.46 0.46 0.46 0.43 0.42 0.44 0.44 0.45 0.47 0.48 0.48 0.49 0.51 0.49 0.48 0.48 0.49 0.52 0.55 0.57 0.59 0.60 0.62 0.56 0.52
0.57 0.63 0.67 0.66 0.63 0.60 0.58 0.54 0.52 0.51 0.52 0.51 0.50 0.50 0.49 0.49 0.48 0.47 0.45 0.44 0.42 0.40 0.39 0.40 0.42 0.43 0.45 0.45 0.45 0.46 0.50 0.48 0.49 0.50 0.50 0.51 0.55 0.58 0.61 0.62 0.63 0.62 0.59
0.60 0.64 0.67 0.67 0.63 0.60 0.59 0.55 0.55 0.53 0.52 0.51 0.51 0.50 0.48 0.48 0.48 0.46 0.43 0.41 0.40 0.37 0.34 0.35 0.37 0.39 0.39 0.39 0.38 0.37 0.37 0.36 0.36 0.44 0.48 0.52 0.57 0.58 0.59 0.61 0.61 0.60 0.59
0.60 0.63 0.67 0.66 0.62 0.58 0.57 0.57 0.55 0.53 0.51 0.51 0.51 0.49 0.50 0.48 0.47 0.44 0.42 0.40 0.37 0.32 0.28 0.28 0.29 0.30 0.32 0.30 0.28 0.28 0.27 0.24 0.20 0.24 0.29 0.33 0.43 0.51 0.56 0.57 0.57 0.59 0.60
0.62 0.64 0.66 0.66 0.61 0.56 0.58 0.57 0.58 0.57 0.55 0.52 0.50 0.50 0.50 0.50 0.46 0.43 0.41 0.38 0.33 0.28 0.25 0.26 0.27 0.28 0.28 0.24 0.22 0.21 0.20 0.21 0.20 0.21 0.24 0.24 0.27 0.30 0.34 0.39 0.47 0.49 0.53
0.64 0.65 0.67 0.66 0.60 0.59 0.59 0.61 0.62 0.64 0.58 0.52 0.51 0.51 0.50 0.47 0.44 0.41 0.39 0.34 0.29 0.25 0.24 0.25 0.28 0.28 0.25 0.22 0.19 0.17 0.15 0.17 0.21 0.23 0.23 0.23 0.23 0.25 0.25 0.24 0.27 0.27 0.24
0.65 0.66 0.66 0.66 0.66 0.65 0.67 0.69 0.66 0.65 0.60 0.55 0.52 0.50 0.49 0.46 0.42 0.39 0.35 0.30 0.26 0.23 0.24 0.24 0.25 0.27 0.24 0.22 0.19 0.17 0.15 0.15 0.16 0.19 0.21 0.20 0.22 0.23 0.26 0.21 0.21 0.20 0.18
0.61 0.63 0.65 0.68 0.72 0.71 0.70 0.67 0.66 0.64 0.62 0.54 0.50 0.50 0.47 0.44 0.40 0.35 0.29 0.25 0.23 0.22 0.22 0.22 0.22 0.24 0.23 0.21 0.19 0.17 0.15 0.15 0.15 0.16 0.17 0.17 0.17 0.17 0.19 0.19 0.20 0.19 0.16
0.60 0.60 0.63 0.64 0.67 0.69 0.70 0.67 0.65 0.67 0.58 0.51 0.51 0.47 0.47 0.42 0.37 0.30 0.25 0.22 0.21 0.20 0.19 0.20 0.22 0.22 0.20 0.18 0.17 0.17 0.16 0.15 0.15 0.16 0.16 0.15 0.14 0.16 0.15 0.15 0.15 0.15 0.16
0.57 0.59 0.62 0.63 0.67 0.71 0.67 0.68 0.70 0.66 0.56 0.52 0.49 0.49 0.45 0.39 0.33 0.26 0.22 0.20 0.19 0.19 0.18 0.18 0.18 0.18 0.20 0.19 0.18 0.18 0.18 0.18 0.17 0.17 0.17 0.16 0.13 0.13 0.12 0.11 0.11 0.11 0.13
0.59 0.59 0.63 0.62 0.64 0.69 0.69 0.70 0.63 0.61 0.55 0.50 0.48 0.47 0.43 0.35 0.29 0.24 0.20 0.19 0.18 0.18 0.17 0.18 0.18 0.19 0.18 0.19 0.17 0.17 0.16 0.15 0.16 0.17 0.18 0.16 0.15 0.13 0.12 0.10 0.09 0.09 0.09
0.59 0.60 0.59 0.61 0.64 0.66 0.68 0.62 0.59 0.59 0.51 0.50 0.47 0.45 0.39 0.33 0.26 0.22 0.20 0.19 0.20 0.21 0.19 0.18 0.18 0.19 0.18 0.19 0.18 0.16 0.15 0.14 0.13 0.14 0.15 0.17 0.15 0.14 0.12 0.10 0.09 0.07 0.08
0.52 0.56 0.57 0.56 0.58 0.59 0.61 0.57 0.58 0.51 0.50 0.50 0.48 0.42 0.37 0.32 0.27 0.24 0.22 0.20 0.21 0.20 0.17 0.16 0.16 0.18 0.19 0.20 0.19 0.17 0.15 0.14 0.13 0.13 0.12 0.13 0.14 0.13 0.12 0.11 0.10 0.08 0.08
0.51 0.53 0.54 0.53 0.57 0.57 0.56 0.54 0.50 0.50 0.52 0.50 0.45 0.38 0.33 0.31 0.29 0.24 0.22 0.22 0.20 0.17 0.15 0.15 0.15 0.17 0.18 0.19 0.19 0.18 0.16 0.16 0.14 0.13 0.13 0.13 0.13 0.13 0.12 0.12 0.11 0.10 0.09
0.48 0.51 0.52 0.53 0.53 0.53 0.54 0.52 0.49 0.51 0.49 0.45 0.39 0.35 0.33 0.30 0.28 0.25 0.23 0.22 0.19 0.17 0.15 0.14 0.14 0.15 0.16 0.17 0.19 0.18 0.17 0.15 0.14 0.14 0.13 0.12 0.11 0.11 0.11 0.11 0.10 0.09 0.08
0.46 0.49 0.51 0.50 0.49 0.51 0.51 0.51 0.51 0.50 0.45 0.40 0.37 0.35 0.31 0.27 0.28 0.27 0.25 0.22 0.19 0.17 0.16 0.14 0.14 0.16 0.17 0.16 0.17 0.16 0.15 0.14 0.12 0.12 0.10 0.10 0.09 0.09 0.09 0.09 0.09 0.08 0.08
0.47 0.49 0.47 0.46 0.47 0.48 0.50 0.51 0.50 0.47 0.43 0.40 0.38 0.33 0.29 0.26 0.26 0.26 0.24 0.22 0.21 0.19 0.15 0.15 0.15 0.16 0.17 0.17 0.17 0.15 0.13 0.12 0.12 0.11 0.10 0.09 0.08 0.08 0.08 0.08 0.09 0.08 0.08
0.46 0.45 0.45 0.45 0.46 0.48 0.48 0.48 0.49 0.47 0.43 0.40 0.35 0.30 0.27 0.26 0.25 0.23 0.22 0.23 0.20 0.18 0.17 0.18 0.17 0.17 0.20 0.20 0.18 0.17 0.15 0.13 0.12 0.10 0.09 0.08 0.08 0.08 0.08 0.08 0.08 0.08 0.08

GFSMW_prec_pwat_144.txt.gz
Precipitable_Water
0.52 0.58 0.60 0.64 0.62 0.63 0.65 0.61 0.59 0.59 0.54 0.52 0.50 0.48 0.47 0.48 0.48 0.48 0.47 0.46 0.46 0.46 0.45 0.45 0.46 0.47 0.45 0.45 0.46 0.46 0.44 0.45 0.48 0.44 0.42 0.46 0.54 0.60 0.63 0.69 0.75 0.86 0.92
0.52 0.57 0.60 0.62 0.61 0.62 0.63 0.62 0.60 0.58 0.56 0.56 0.53 0.50 0.46 0.44 0.43 0.43 0.42 0.40 0.40 0.40 0.38 0.38 0.37 0.38 0.37 0.37 0.39 0.40 0.40 0.44 0.49 0.43 0.43 0.35 0.40 0.56 0.65 0.71 0.69 0.76 0.86
0.51 0.55 0.58 0.58 0.61 0.61 0.61 0.60 0.59 0.57 0.57 0.56 0.54 0.48 0.46 0.43 0.39 0.38 0.38 0.38 0.39 0.39 0.39 0.39 0.38 0.37 0.37 0.35 0.36 0.37 0.37 0.34 0.41 0.48 0.46 0.38 0.34 0.42 0.52 0.63 0.70 0.72 0.76
0.54 0.57 0.57 0.58 0.61 0.63 0.63 0.61 0.58 0.54 0.54 0.53 0.48 0.44 0.40 0.35 0.37 0.37 0.39 0.40 0.41 0.41 0.41 0.40 0.39 0.38 0.38 0.36 0.36 0.38 0.37 0.37 0.35 0.41 0.47 0.49 0.50 0.41 0.39 0.52 0.59 0.68 0.68
0.53 0.55 0.57 0.60 0.64 0.66 0.62 0.60 0.54 0.50 0.49 0.48 0.46 0.43 0.39 0.39 0.40 0.41 0.40 0.41 0.41 0.42 0.42 0.41 0.41 0.40 0.41 0.41 0.40 0.40 0.39 0.40 0.38 0.38 0.39 0.42 0.44 0.49 0.45 0.41 0.52 0.57 0.63
0.53 0.56 0.61 0.64 0.65 0.66 0.64 0.59 0.53 0.49 0.49 0.49 0.47 0.45 0.43 0.42 0.42 0.42 0.41 0.41 0.41 0.41 0.42 0.43 0.43 0.43 0.44 0.44 0.44 0.45 0.44 0.43 0.42 0.41 0.41 0.40 0.40 0.40 0.41 0.39 0.42 0.50 0.61
0.51 0.54 0.58 0.61 0.63 0.63 0.62 0.58 0.53 0.48 0.50 0.49 0.48 0.48 0.48 0.47 0.45 0.45 0.44 0.43 0.42 0.41 0.43 0.44 0.44 0.45 0.46 0.45 0.46 0.46 0.44 0.45 0.44 0.45 0.45 0.46 0.45 0.47 0.47 0.44 0.42 0.42 0.48
0.51 0.53 0.57 0.60 0.62 0.63 0.63 0.60 0.54 0.50 0.50 0.50 0.50 0.51 0.52 0.50 0.49 0.47 0.46 0.46 0.43 0.41 0.44 0.44 0.45 0.45 0.46 0.44 0.44 0.45 0.44 0.44 0.44 0.44 0.46 0.48 0.50 0.51 0.50 0.48 0.45 0.42 0.47
0.51 0.55 0.60 0.62 0.63 0.65 0.66 0.60 0.55 0.51 0.51 0.52 0.52 0.53 0.54 0.52 0.49 0.48 0.48 0.45 0.43 0.41 0.42 0.42 0.41 0.42 0.42 0.40 0.41 0.40 0.38 0.40 0.42 0.44 0.46 0.48 0.51 0.53 0.52 0.52 0.51 0.46 0.41
0.54 0.57 0.60 0.62 0.66 0.70 0.69 0.63 0.59 0.53 0.54 0.55 0.55 0.55 0.55 0.53 0.50 0.49 0.45 0.44 0.42 0.40 0.38 0.38 0.38 0.36 0.35 0.36 0.34 0.34 0.34 0.32 0.33 0.34 0.35 0.38 0.43 0.46 0.51 0.53 0.53 0.53 0.50
0.55 0.58 0.61 0.65 0.70 0.74 0.70 0.64 0.59 0.56 0.54 0.56 0.55 0.54 0.53 0.52 0.50 0.47 0.46 0.45 0.41 0.37 0.33 0.33 0.33 0.31 0.27 0.27 0.25 0.25 0.25 0.24 0.24 0.25 0.25 0.28 0.32 0.35 0.44 0.50 0.54 0.54 0.54
0.57 0.63 0.65 0.68 0.72 0.74 0.69 0.63 0.59 0.55 0.56 0.56 0.55 0.54 0.53 0.51 0.48 0.47 0.46 0.43 0.37 0.33 0.31 0.31 0.30 0.28 0.24 0.22 0.21 0.19 0.20 0.19 0.18 0.20 0.20 0.22 0.28 0.28 0.34 0.38 0.42 0.50 0.54
0.57 0.61 0.66 0.69 0.72 0.72 0.67 0.63 0.60 0.58 0.59 0.58 0.58 0.55 0.52 0.50 0.50 0.48 0.45 0.39 0.33 0.31 0.30 0.29 0.28 0.26 0.23 0.19 0.18 0.17 0.17 0.18 0.17 0.17 0.19 0.21 0.23 0.27 0.29 0.30 0.26 0.32 0.30
0.58 0.61 0.65 0.68 0.72 0.71 0.66 0.63 0.63 0.61 0.61 0.63 0.62 0.57 0.54 0.53 0.52 0.49 0.42 0.36 0.32 0.29 0.27 0.26 0.25 0.23 0.22 0.18 0.17 0.17 0.16 0.16 0.17 0.16 0.16 0.18 0.21 0.22 0.24 0.26 0.21 0.21 0.20
0.60 0.63 0.66 0.70 0.71 0.71 0.69 0.67 0.64 0.65 0.66 0.66 0.65 0.58 0.56 0.55 0.52 0.45 0.39 0.35 0.30 0.26 0.26 0.24 0.24 0.23 0.22 0.19 0.17 0.17 0.16 0.15 0.16 0.15 0.14 0.16 0.19 0.21 0.20 0.20 0.21 0.17 0.16
0.60 0.65 0.67 0.68 0.71 0.69 0.67 0.66 0.67 0.68 0.66 0.68 0.64 0.59 0.57 0.53 0.47 0.42 0.37 0.31 0.26 0.24 0.24 0.22 0.22 0.21 0.20 0.20 0.17 0.16 0.16 0.17 0.16 0.15 0.14 0.14 0.15 0.16 0.18 0.17 0.19 0.20 0.17
0.66 0.67 0.70 0.69 0.68 0.70 0.71 0.67 0.69 0.68 0.66 0.65 0.64 0.56 0.53 0.49 0.44 0.39 0.33 0.27 0.23 0.21 0.21 0.22 0.21 0.19 0.18 0.18 0.18 0.17 0.16 0.16 0.17 0.16 0.15 0.14 0.14 0.14 0.12 0.14 0.14 0.15 0.16
0.66 0.67 0.68 0.69 0.70 0.74 0.73 0.72 0.71 0.67 0.69 0.66 0.59 0.54 0.51 0.47 0.42 0.36 0.30 0.24 0.22 0.19 0.19 0.19 0.20 0.18 0.17 0.18 0.19 0.19 0.18 0.17 0.17 0.17 0.16 0.14 0.14 0.13 0.11 0.10 0.10 0.10 0.11
0.70 0.70 0.70 0.72 0.71 0.70 0.73 0.72 0.69 0.69 0.63 0.62 0.58 0.54 0.50 0.44 0.39 0.33 0.27 0.23 0.20 0.18 0.18 0.18 0.19 0.18 0.18 0.18 0.17 0.17 0.17 0.16 0.17 0.18 0.16 0.15 0.14 0.14 0.12 0.10 0.08 0.08 0.09
0.68 0.71 0.74 0.73 0.71 0.71 0.73 0.70 0.66 0.65 0.60 0.59 0.57 0.53 0.48 0.42 0.36 0.30 0.25 0.22 0.19 0.17 0.20 0.20 0.20 0.20 0.18 0.18 0.17 0.16 0.16 0.14 0.15 0.15 0.15 0.15 0.14 0.13 0.11 0.09 0.08 0.07 0.07
0.60 0.66 0.68 0.66 0.68 0.69 0.70 0.66 0.64 0.59 0.60 0.57 0.54 0.49 0.45 0.39 0.34 0.30 0.25 0.21 0.19 0.18 0.20 0.19 0.19 0.18 0.19 0.19 0.18 0.17 0.15 0.14 0.14 0.13 0.13 0.15 0.14 0.14 0.12 0.11 0.09 0.08 0.08
0.51 0.55 0.58 0.60 0.62 0.65 0.65 0.61 0.60 0.61 0.57 0.52 0.49 0.46 0.43 0.39 0.35 0.29 0.24 0.21 0.19 0.18 0.18 0.17 0.16 0.18 0.19 0.21 0.19 0.18 0.17 0.15 0.13 0.13 0.13 0.14 0.14 0.14 0.13 0.11 0.10 0.09 0.08
0.49 0.54 0.55 0.58 0.60 0.61 0.62 0.59 0.58 0.56 0.52 0.48 0.46 0.43 0.41 0.37 0.34 0.28 0.23 0.20 0.19 0.18 0.16 0.15 0.15 0.16 0.17 0.20 0.20 0.18 0.17 0.16 0.14 0.13 0.13 0.12 0.11 0.11 0.11 0.10 0.09 0.09 0.08
0.45 0.49 0.51 0.52 0.54 0.56 0.55 0.56 0.57 0.55 0.49 0.47 0.45 0.43 0.39 0.35 0.32 0.28 0.24 0.21 0.19 0.18 0.16 0.15 0.15 0.15 0.16 0.17 0.18 0.17 0.15 0.14 0.12 0.11 0.10 0.10 0.09 0.09 0.09 0.08 0.08 0.08 0.08
0.47 0.47 0.48 0.49 0.49 0.52 0.54 0.56 0.53 0.52 0.47 0.45 0.43 0.40 0.38 0.33 0.30 0.28 0.25 0.22 0.22 0.20 0.16 0.15 0.17 0.17 0.16 0.17 0.17 0.15 0.14 0.13 0.12 0.10 0.09 0.09 0.09 0.09 0.09 0.09 0.08 0.08 0.08
0.48 0.47 0.46 0.46 0.47 0.50 0.52 0.52 0.51 0.48 0.45 0.42 0.40 0.39 0.37 0.33 0.29 0.27 0.25 0.26 0.24 0.21 0.18 0.18 0.18 0.19 0.19 0.19 0.19 0.17 0.15 0.13 0.11 0.09 0.09 0.09 0.09 0.09 0.09 0.09 0.09 0.09 0.09

GFSMW_prec_pwat_147.txt.gz
Precipitable_Water
0.52 0.57 0.59 0.61 0.62 0.62 0.62 0.63 0.63 0.66 0.66 0.62 0.55 0.54 0.51 0.51 0.49 0.46 0.44 0.42 0.41 0.41 0.40 0.39 0.39 0.40 0.37 0.37 0.37 0.37 0.36 0.37 0.41 0.37 0.38 0.44 0.54 0.55 0.62 0.67 0.71 0.70 0.75
0.49 0.54 0.58 0.61 0.63 0.61 0.63 0.63 0.62 0.65 0.66 0.63 0.60 0.58 0.53 0.47 0.44 0.42 0.40 0.40 0.40 0.40 0.39 0.38 0.37 0.38 0.36 0.36 0.36 0.35 0.32 0.34 0.38 0.33 0.35 0.30 0.36 0.47 0.56 0.65 0.66 0.69 0.72
0.49 0.53 0.56 0.62 0.64 0.61 0.62 0.62 0.61 0.63 0.66 0.65 0.62 0.58 0.53 0.46 0.41 0.39 0.39 0.41 0.42 0.43 0.42 0.42 0.41 0.41 0.41 0.39 0.40 0.39 0.36 0.32 0.36 0.40 0.34 0.29 0.28 0.35 0.50 0.55 0.62 0.65 0.68
0.53 0.57 0.59 0.61 0.62 0.63 0.65 0.63 0.62 0.62 0.64 0.63 0.58 0.52 0.47 0.40 0.40 0.41 0.43 0.44 0.45 0.45 0.45 0.44 0.44 0.43 0.43 0.42 0.42 0.43 0.41 0.39 0.34 0.39 0.41 0.43 0.40 0.31 0.29 0.44 0.54 0.58 0.60
0.46 0.53 0.56 0.60 0.63 0.65 0.65 0.64 0.63 0.62 0.62 0.60 0.54 0.50 0.48 0.46 0.46 0.46 0.46 0.46 0.46 0.47 0.47 0.46 0.46 0.46 0.46 0.46 0.45 0.43 0.42 0.41 0.38 0.38 0.39 0.40 0.39 0.42 0.36 0.31 0.38 0.47 0.57
0.48 0.54 0.60 0.64 0.64 0.66 0.65 0.63 0.61 0.59 0.58 0.54 0.50 0.49 0.47 0.47 0.46 0.47 0.46 0.46 0.47 0.48 0.49 0.49 0.49 0.49 0.48 0.46 0.45 0.44 0.42 0.41 0.41 0.42 0.41 0.40 0.38 0.39 0.38 0.34 0.36 0.38 0.48
0.48 0.51 0.53 0.57 0.61 0.62 0.64 0.64 0.61 0.57 0.56 0.52 0.48 0.49 0.50 0.51 0.49 0.49 0.49 0.47 0.46 0.47 0.47 0.48 0.48 0.47 0.46 0.45 0.44 0.41 0.40 0.40 0.39 0.40 0.40 0.43 0.43 0.45 0.45 0.42 0.39 0.38 0.46
0.50 0.52 0.55 0.59 0.61 0.63 0.65 0.64 0.61 0.57 0.55 0.51 0.49 0.52 0.54 0.53 0.53 0.53 0.54 0.50 0.48 0.47 0.47 0.47 0.46 0.45 0.43 0.41 0.40 0.37 0.37 0.37 0.36 0.36 0.37 0.39 0.41 0.45 0.43 0.42 0.41 0.39 0.43
0.51 0.54 0.58 0.60 0.63 0.65 0.66 0.66 0.63 0.59 0.56 0.53 0.52 0.54 0.55 0.55 0.55 0.57 0.56 0.51 0.48 0.46 0.45 0.44 0.43 0.41 0.37 0.35 0.34 0.31 0.30 0.33 0.33 0.33 0.33 0.33 0.33 0.38 0.40 0.42 0.45 0.43 0.39
0.54 0.57 0.59 0.62 0.65 0.68 0.69 0.69 0.66 0.59 0.58 0.56 0.54 0.54 0.55 0.57 0.58 0.56 0.52 0.50 0.48 0.44 0.42 0.41 0.39 0.34 0.32 0.30 0.28 0.25 0.24 0.24 0.25 0.26 0.27 0.27 0.27 0.31 0.34 0.38 0.43 0.45 0.44
0.56 0.57 0.60 0.65 0.67 0.69 0.69 0.69 0.67 0.63 0.60 0.57 0.55 0.56 0.57 0.58 0.57 0.53 0.53 0.50 0.46 0.42 0.41 0.39 0.34 0.30 0.28 0.26 0.24 0.22 0.21 0.19 0.18 0.19 0.20 0.23 0.25 0.27 0.29 0.34 0.39 0.36 0.44
0.57 0.60 0.61 0.63 0.66 0.68 0.70 0.69 0.68 0.66 0.62 0.58 0.56 0.59 0.57 0.57 0.54 0.53 0.52 0.49 0.44 0.42 0.39 0.36 0.30 0.27 0.25 0.24 0.21 0.19 0.18 0.17 0.16 0.16 0.17 0.17 0.22 0.24 0.25 0.28 0.33 0.28 0.36
0.59 0.61 0.62 0.64 0.66 0.70 0.71 0.71 0.71 0.68 0.64 0.61 0.60 0.57 0.55 0.55 0.53 0.52 0.50 0.47 0.43 0.40 0.36 0.32 0.28 0.25 0.23 0.21 0.19 0.17 0.17 0.17 0.16 0.16 0.16 0.16 0.17 0.18 0.21 0.21 0.27 0.23 0.26
0.58 0.59 0.60 0.63 0.67 0.70 0.72 0.73 0.71 0.70 0.64 0.64 0.57 0.56 0.57 0.56 0.56 0.55 0.51 0.46 0.41 0.36 0.33 0.30 0.27 0.24 0.21 0.19 0.17 0.17 0.17 0.17 0.16 0.15 0.16 0.16 0.15 0.16 0.17 0.19 0.19 0.23 0.18
0.58 0.61 0.62 0.64 0.68 0.70 0.73 0.73 0.71 0.70 0.65 0.62 0.63 0.60 0.62 0.60 0.57 0.53 0.50 0.45 0.38 0.33 0.31 0.29 0.25 0.22 0.20 0.18 0.18 0.16 0.16 0.16 0.16 0.15 0.15 0.15 0.15 0.15 0.17 0.18 0.19 0.19 0.19
0.60 0.64 0.67 0.69 0.70 0.73 0.74 0.73 0.70 0.70 0.75 0.64 0.62 0.64 0.62 0.59 0.56 0.55 0.50 0.40 0.35 0.31 0.29 0.26 0.22 0.20 0.20 0.20 0.17 0.16 0.16 0.16 0.15 0.14 0.14 0.14 0.14 0.13 0.14 0.16 0.18 0.17 0.15
0.61 0.64 0.67 0.71 0.73 0.73 0.76 0.74 0.74 0.73 0.66 0.66 0.67 0.66 0.63 0.61 0.59 0.54 0.45 0.36 0.32 0.29 0.27 0.23 0.22 0.20 0.20 0.18 0.17 0.18 0.18 0.17 0.17 0.16 0.14 0.13 0.12 0.12 0.11 0.12 0.13 0.14 0.16
0.66 0.68 0.70 0.74 0.75 0.76 0.74 0.74 0.73 0.71 0.68 0.67 0.67 0.65 0.61 0.56 0.53 0.48 0.39 0.34 0.30 0.27 0.25 0.21 0.20 0.19 0.20 0.19 0.18 0.19 0.18 0.17 0.17 0.16 0.15 0.13 0.12 0.11 0.11 0.11 0.10 0.11 0.12
0.70 0.72 0.75 0.76 0.75 0.74 0.74 0.73 0.72 0.68 0.65 0.66 0.63 0.62 0.59 0.54 0.51 0.42 0.36 0.31 0.28 0.25 0.22 0.21 0.20 0.19 0.19 0.19 0.18 0.18 0.18 0.17 0.17 0.18 0.16 0.14 0.12 0.11 0.10 0.09 0.10 0.09 0.10
0.65 0.71 0.75 0.75 0.74 0.74 0.74 0.70 0.67 0.66 0.64 0.63 0.62 0.61 0.56 0.52 0.46 0.38 0.32 0.29 0.26 0.23 0.21 0.20 0.20 0.21 0.19 0.19 0.18 0.18 0.17 0.16 0.16 0.16 0.16 0.15 0.14 0.12 0.10 0.09 0.09 0.08 0.09
0.62 0.65 0.70 0.69 0.71 0.74 0.71 0.67 0.66 0.63 0.65 0.63 0.61 0.58 0.55 0.51 0.44 0.36 0.32 0.28 0.25 0.23 0.21 0.19 0.20 0.20 0.20 0.18 0.17 0.17 0.16 0.15 0.14 0.14 0.15 0.15 0.15 0.13 0.12 0.11 0.10 0.09 0.09
0.52 0.57 0.58 0.61 0.66 0.68 0.66 0.63 0.61 0.63 0.64 0.60 0.57 0.54 0.50 0.46 0.40 0.34 0.31 0.28 0.25 0.22 0.20 0.19 0.20 0.20 0.20 0.19 0.18 0.17 0.16 0.15 0.14 0.13 0.15 0.15 0.14 0.13 0.12 0.11 0.10 0.10 0.10
0.43 0.49 0.52 0.56 0.59 0.62 0.63 0.61 0.60 0.63 0.59 0.57 0.53 0.51 0.47 0.43 0.38 0.33 0.29 0.26 0.25 0.22 0.20 0.19 0.19 0.19 0.20 0.21 0.20 0.18 0.16 0.15 0.14 0.15 0.14 0.13 0.12 0.11 0.11 0.10 0.10 0.10 0.10
0.40 0.45 0.48 0.50 0.54 0.60 0.61 0.60 0.61 0.62 0.57 0.52 0.51 0.48 0.44 0.41 0.37 0.33 0.29 0.26 0.24 0.21 0.19 0.17 0.18 0.17 0.19 0.20 0.20 0.19 0.17 0.15 0.14 0.13 0.11 0.11 0.10 0.10 0.10 0.10 0.10 0.10 0.10
0.42 0.44 0.46 0.49 0.52 0.56 0.58 0.59 0.58 0.57 0.54 0.52 0.49 0.46 0.43 0.40 0.35 0.31 0.29 0.27 0.26 0.21 0.18 0.17 0.18 0.16 0.17 0.19 0.19 0.17 0.15 0.14 0.12 0.11 0.11 0.11 0.10 0.10 0.10 0.10 0.10 0.10 0.10
0.42 0.44 0.47 0.48 0.49 0.52 0.52 0.54 0.54 0.55 0.51 0.47 0.46 0.43 0.41 0.38 0.35 0.32 0.30 0.30 0.26 0.22 0.21 0.20 0.20 0.19 0.20 0.19 0.17 0.16 0.16 0.14 0.12 0.11 0.10 0.10 0.10 0.10 0.09 0.09 0.10 0.10 0.10

GFSMW_prec_pwat_150.txt.gz
Precipitable_Water
0.58 0.64 0.64 0.65 0.64 0.66 0.68 0.69 0.70 0.72 0.69 0.65 0.63 0.59 0.57 0.60 0.58 0.55 0.52 0.48 0.46 0.45 0.43 0.41 0.41 0.41 0.40 0.41 0.42 0.41 0.39 0.38 0.38 0.35 0.34 0.43 0.56 0.56 0.61 0.64 0.64 0.63 0.64
0.55 0.57 0.60 0.63 0.64 0.65 0.67 0.67 0.69 0.71 0.70 0.68 0.67 0.63 0.60 0.59 0.55 0.50 0.47 0.47 0.46 0.45 0.44 0.43 0.43 0.44 0.43 0.44 0.42 0.41 0.38 0.39 0.41 0.34 0.37 0.34 0.44 0.53 0.55 0.61 0.58 0.60 0.63
0.46 0.53 0.56 0.59 0.62 0.63 0.66 0.66 0.68 0.71 0.72 0.71 0.68 0.63 0.60 0.54 0.49 0.47 0.46 0.47 0.47 0.48 0.48 0.48 0.47 0.46 0.46 0.43 0.43 0.44 0.42 0.39 0.43 0.46 0.38 0.31 0.30 0.33 0.48 0.56 0.58 0.57 0.57
0.48 0.55 0.57 0.59 0.62 0.64 0.69 0.69 0.69 0.71 0.73 0.72 0.66 0.59 0.52 0.46 0.47 0.47 0.48 0.48 0.51 0.51 0.51 0.51 0.49 0.48 0.47 0.46 0.45 0.47 0.46 0.45 0.40 0.46 0.46 0.46 0.43 0.33 0.30 0.41 0.45 0.50 0.47
0.49 0.55 0.58 0.60 0.64 0.66 0.67 0.68 0.68 0.69 0.71 0.71 0.68 0.62 0.52 0.50 0.49 0.50 0.50 0.51 0.52 0.53 0.53 0.53 0.52 0.50 0.49 0.49 0.48 0.47 0.47 0.46 0.43 0.40 0.41 0.42 0.44 0.44 0.36 0.30 0.36 0.42 0.46
0.48 0.56 0.62 0.62 0.61 0.66 0.68 0.67 0.66 0.67 0.70 0.71 0.69 0.60 0.52 0.48 0.48 0.50 0.51 0.52 0.53 0.54 0.55 0.54 0.53 0.52 0.51 0.50 0.49 0.49 0.47 0.44 0.43 0.41 0.40 0.38 0.35 0.35 0.35 0.33 0.35 0.35 0.44
0.50 0.54 0.57 0.58 0.56 0.59 0.65 0.66 0.65 0.64 0.68 0.68 0.65 0.59 0.53 0.51 0.51 0.52 0.52 0.53 0.54 0.54 0.54 0.54 0.53 0.51 0.51 0.50 0.48 0.46 0.42 0.40 0.38 0.38 0.37 0.38 0.38 0.40 0.39 0.36 0.33 0.32 0.39
0.54 0.58 0.59 0.60 0.60 0.63 0.65 0.65 0.65 0.64 0.65 0.63 0.60 0.57 0.55 0.53 0.52 0.54 0.55 0.56 0.56 0.56 0.57 0.55 0.53 0.50 0.49 0.47 0.44 0.39 0.37 0.38 0.36 0.35 0.35 0.34 0.35 0.36 0.34 0.33 0.30 0.28 0.34
0.55 0.57 0.62 0.66 0.66 0.65 0.67 0.66 0.65 0.64 0.63 0.61 0.61 0.58 0.56 0.55 0.54 0.56 0.58 0.58 0.59 0.57 0.57 0.55 0.51 0.46 0.43 0.42 0.38 0.33 0.30 0.31 0.30 0.29 0.29 0.28 0.29 0.31 0.31 0.32 0.34 0.31 0.28
0.58 0.61 0.63 0.65 0.67 0.69 0.70 0.70 0.69 0.66 0.65 0.65 0.63 0.60 0.58 0.58 0.57 0.57 0.56 0.58 0.58 0.57 0.56 0.52 0.47 0.42 0.40 0.37 0.32 0.28 0.27 0.25 0.24 0.25 0.24 0.24 0.24 0.26 0.28 0.29 0.31 0.35 0.34
0.57 0.61 0.65 0.68 0.70 0.70 0.69 0.70 0.70 0.68 0.66 0.65 0.64 0.62 0.60 0.58 0.57 0.56 0.56 0.57 0.59 0.57 0.52 0.48 0.42 0.38 0.36 0.33 0.29 0.26 0.24 0.22 0.22 0.22 0.21 0.20 0.21 0.21 0.23 0.26 0.28 0.29 0.31
0.52 0.58 0.62 0.66 0.68 0.69 0.70 0.72 0.73 0.72 0.70 0.68 0.66 0.63 0.61 0.59 0.56 0.55 0.58 0.58 0.57 0.54 0.50 0.44 0.38 0.35 0.32 0.28 0.25 0.23 0.22 0.20 0.19 0.19 0.18 0.18 0.18 0.20 0.19 0.19 0.22 0.24 0.28
0.46 0.51 0.58 0.62 0.66 0.69 0.71 0.72 0.72 0.72 0.73 0.71 0.67 0.63 0.60 0.57 0.56 0.59 0.59 0.56 0.54 0.51 0.49 0.42 0.37 0.31 0.28 0.25 0.25 0.23 0.21 0.19 0.18 0.18 0.18 0.17 0.18 0.17 0.16 0.15 0.18 0.18 0.24
0.47 0.49 0.51 0.57 0.64 0.69 0.70 0.70 0.74 0.76 0.75 0.72 0.66 0.62 0.59 0.58 0.61 0.61 0.55 0.55 0.54 0.52 0.45 0.39 0.34 0.30 0.26 0.24 0.22 0.22 0.21 0.18 0.17 0.17 0.18 0.18 0.17 0.16 0.15 0.14 0.16 0.18 0.21
0.48 0.52 0.53 0.56 0.58 0.63 0.66 0.71 0.73 0.74 0.75 0.70 0.65 0.62 0.64 0.66 0.63 0.60 0.57 0.55 0.53 0.46 0.43 0.38 0.33 0.29 0.25 0.23 0.21 0.21 0.19 0.17 0.16 0.15 0.16 0.16 0.15 0.15 0.15 0.14 0.15 0.17 0.16
0.52 0.56 0.58 0.60 0.63 0.64 0.66 0.70 0.72 0.74 0.72 0.71 0.67 0.68 0.68 0.65 0.64 0.59 0.55 0.53 0.50 0.45 0.42 0.34 0.31 0.27 0.24 0.21 0.20 0.19 0.18 0.17 0.16 0.14 0.15 0.15 0.14 0.14 0.13 0.14 0.13 0.14 0.15
0.52 0.57 0.61 0.63 0.64 0.66 0.68 0.68 0.71 0.74 0.70 0.70 0.68 0.67 0.66 0.64 0.61 0.59 0.54 0.51 0.48 0.44 0.38 0.33 0.30 0.26 0.22 0.20 0.19 0.19 0.19 0.18 0.17 0.17 0.14 0.12 0.12 0.12 0.11 0.11 0.13 0.14 0.14
0.55 0.59 0.65 0.69 0.69 0.71 0.71 0.70 0.71 0.72 0.70 0.67 0.66 0.65 0.64 0.62 0.61 0.61 0.58 0.51 0.46 0.40 0.34 0.31 0.29 0.26 0.23 0.21 0.20 0.20 0.20 0.19 0.18 0.17 0.16 0.15 0.13 0.11 0.10 0.10 0.11 0.12 0.13
0.57 0.66 0.69 0.72 0.72 0.71 0.71 0.70 0.68 0.68 0.67 0.66 0.63 0.63 0.63 0.61 0.59 0.56 0.51 0.46 0.42 0.37 0.32 0.30 0.28 0.24 0.22 0.21 0.20 0.21 0.20 0.19 0.18 0.18 0.17 0.15 0.12 0.10 0.10 0.10 0.09 0.10 0.12
0.52 0.60 0.68 0.73 0.72 0.71 0.71 0.68 0.66 0.66 0.64 0.64 0.63 0.62 0.60 0.58 0.56 0.52 0.45 0.42 0.37 0.33 0.31 0.28 0.26 0.25 0.22 0.21 0.20 0.22 0.20 0.19 0.18 0.18 0.17 0.15 0.13 0.12 0.12 0.12 0.11 0.09 0.10
0.46 0.55 0.61 0.63 0.69 0.71 0.69 0.65 0.65 0.64 0.66 0.65 0.63 0.60 0.58 0.56 0.54 0.50 0.45 0.39 0.34 0.31 0.28 0.26 0.25 0.23 0.22 0.20 0.19 0.20 0.20 0.19 0.18 0.18 0.17 0.16 0.14 0.13 0.13 0.13 0.11 0.11 0.12
0.39 0.46 0.50 0.55 0.61 0.65 0.67 0.65 0.62 0.64 0.65 0.63 0.59 0.57 0.55 0.53 0.52 0.47 0.40 0.37 0.32 0.29 0.26 0.25 0.24 0.23 0.22 0.21 0.19 0.18 0.18 0.18 0.17 0.17 0.17 0.16 0.15 0.13 0.13 0.12 0.11 0.11 0.13
0.37 0.41 0.43 0.45 0.52 0.59 0.61 0.60 0.61 0.63 0.61 0.58 0.56 0.54 0.52 0.50 0.47 0.41 0.37 0.34 0.31 0.29 0.27 0.24 0.22 0.22 0.23 0.21 0.19 0.17 0.16 0.16 0.17 0.17 0.16 0.15 0.13 0.13 0.12 0.12 0.12 0.13 0.14
0.37 0.40 0.41 0.42 0.44 0.52 0.56 0.59 0.60 0.59 0.58 0.55 0.53 0.52 0.50 0.47 0.42 0.39 0.35 0.33 0.31 0.29 0.27 0.24 0.23 0.22 0.22 0.21 0.20 0.17 0.16 0.16 0.16 0.14 0.14 0.13 0.11 0.11 0.12 0.14 0.13 0.13 0.13
0.37 0.38 0.39 0.41 0.43 0.46 0.51 0.55 0.56 0.57 0.55 0.53 0.51 0.49 0.48 0.44 0.41 0.38 0.35 0.32 0.32 0.30 0.26 0.25 0.24 0.22 0.21 0.22 0.21 0.19 0.18 0.17 0.16 0.14 0.14 0.13 0.14 0.14 0.14 0.13 0.12 0.13 0.13
0.37 0.37 0.41 0.43 0.44 0.46 0.48 0.52 0.54 0.53 0.52 0.49 0.49 0.48 0.45 0.43 0.40 0.36 0.34 0.34 0.31 0.27 0.26 0.26 0.24 0.24 0.25 0.22 0.20 0.19 0.18 0.15 0.14 0.14 0.14 0.14 0.15 0.14 0.13 0.13 0.12 0.12 0.12